BLOCK DM-SL DEB, 46091

Orbit data source: Space-Track

BLOCK DM-SL DEB, 46091 is space debris in GEO originally from a launch on Tue, 24 Dec 2019 UTC launched from the Tyuratam Missile And Space Complex (TTMTR). Debris objects in space refer to the collection of defunct objects orbiting the Earth. Examples of debris include non-operational satellites, rocket bodies, and fragments generated from explosions, collisions, or faulty payload assembly.

Loading next visibility...
BLOCK DM-SL DEB details
Identifier
46091, 2019-095E
Orbit
GEO
Last TLE update2 days ago
Origin
Flag of CISRosgidromet (CIS)
ManufacturerLavochkin
MissionSpacecraft
Bus & MotorUnknown
MassUnknown
Launch date (UTC)
2019-12-24 (5 years ago)
Launch vehicleUnknown
Launch site
Tyuratam Missile And Space Complex (TTMTR)
Object type
Payload
Rocket body
Debris
Shape & HBRUnknown
Radar Cross SectionMedium (>0.1 m² and <1 m²)

Expand to show TLE details & history

TLE from 2 days ago
0 BLOCK DM-SL DEB
1 46091U 19095E   24360.14148192 -.00000154  00000-0  00000-0 0  9990
2 46091   3.9835  80.4590 0149786 214.9924 143.7370  1.03255716 18174
Epoch: 2024-12-25T03:23Z
Definitive object data (Epoch: 2024-12-25T03:23:44.037Z)
Latitude-0°
Longitude-64.88954°
Altitude35,474.8 km
Speed3.067 km/s
True Right ascension05h 20m 44s
True Declination0° 00' 00"
Sunlit
Object was in daylight at TLE epoch
Visualization TLE readout
Latitude-3.95563°
Longitude-146.61157°
Altitude34,682.861 km
Speed3.127 km/s
Apparent Right ascension00h 18m 49s
Apparent Declination-10° 06' 50"
Sunlit
Object is in daylight
Visualization observer readout
Local Sidereal Time19:57:00
Azimuth113.916° SE
Elevation11.596°
Doppler factor1
Orbital elements
Apogee altitude35,590.742 km
Perigee altitude34,352.026 km
Semi-major axis41,349.521 km
Eccentricity0.0149786
Inclination3.9835°
RAAN80.459°
Arg. of periapsis214.9924°
True anomaly144.73709°
Mean anomaly143.737°
Eccentric anomaly144.23855°
Mean motion0.25813 °/min
BSTARUnknown
Orbital period1394.65 mins
Loading historical data...
46091 neighbors
Authenticating...
Loading maneuver chart data...
Loading historical data...
Loading historical data...
Loading historical data...
Loading historical data...
Loading historical data...
Loading historical data...
Loading historical data...

BLOCK DM-SL DEB Visibility forecast

Observer location: undefined°, undefined

Span
Click to sort rows by Start time (UTC) header in descending order
Start Az.
Max El. time (UTC)
Max El. Az.
Max El.
End time (UTC)
End Az.
1042 mins2024-12-26 20:34:09.986Z113.93° SE2024-12-27 07:11:09.986Z106.319° ESE15.381°2024-12-27 13:56:09.986Z107.224° ESE
|